User: anonymous   Login
Location: Unspecified
(0.0000°N, 0.0000°E)
Time: 03:37:27
(UTC+00:00)
Language:

DSCS II F-15 - Orbit

View from above orbital plane
View from above orbital plane
View from above satellite
View from above satellite

Ground track
Ground track

The orbit data is extracted from the following two-line orbital elements,

1 20202U 89069A   17075.79482022 0.00000000  00000-0  00000-0 0    05
2 20202  15.3739   4.7206 0016767 192.6044 167.3656  0.98603562    01
Epoch (UTC): 16 March 2017 19:04:32
Eccentricity: 0.0016767
inclination: 15.3739°
perigee height: 36189 km
apogee height: 36332 km
right ascension of ascending node: 4.7206°
argument of perigee: 192.6044°
revolutions per day: 0.98603562
mean anomaly at epoch: 167.3656°
orbit number at epoch: 0

The dashed part of the orbit path shows where the satellite is in the earth's shadow,  

DLR